Hourly Weather Świdnica

Today, 11 August, Tuesday

Time Temperature Precipitation Wind Pressure Humidity
00:00 +20°C° 0.1 mm 0 mps 740 mmHg 84%
01:00 +20°C° 0.1 mm 0 mps 740 mmHg 84%
02:00 +19°C° 0 mm 0 mps 740 mmHg 85%
03:00 +21°C° 0 mm 1 mps 740 mmHg 87%
04:00 +20°C° 0 mm 1 mps 740 mmHg 88%
05:00 +21°C° 0 mm 1 mps 740 mmHg 85%
06:00 +22°C° 0 mm 1 mps 740 mmHg 83%
07:00 +23°C° 0 mm 1 mps 741 mmHg 80%
08:00 +24°C° 0 mm 1 mps 741 mmHg 75%
09:00 +25°C° 0 mm 2 mps 741 mmHg 69%
10:00 +27°C° 0 mm 2 mps 741 mmHg 63%
11:00 +27°C° 0.1 mm 2 mps 741 mmHg 60%
12:00 +28°C° 0.1 mm 3 mps 741 mmHg 57%
13:00 +29°C° 0.1 mm 3 mps 741 mmHg 53%
14:00 +29°C° 0 mm 3 mps 741 mmHg 54%
15:00 +28°C° 0 mm 3 mps 740 mmHg 54%
16:00 +28°C° 0 mm 4 mps 740 mmHg 55%
17:00 +27°C° 0.1 mm 3 mps 740 mmHg 62%
18:00 +25°C° 0.1 mm 3 mps 740 mmHg 69%
19:00 +24°C° 0.1 mm 2 mps 740 mmHg 75%
20:00 +23°C° 0 mm 2 mps 741 mmHg 78%
21:00 +21°C° 0 mm 2 mps 741 mmHg 80%
22:00 +21°C° 0 mm 1 mps 741 mmHg 82%
23:00 +20°C° 0 mm 1 mps 741 mmHg 84%

Tomorrow, 12 August, Wednesday

Time Temperature Precipitation Wind Pressure Humidity
00:00 +20°C° 0 mm 1 mps 741 mmHg 86%
01:00 +19°C° 0 mm 1 mps 741 mmHg 88%
02:00 +19°C° 0 mm 1 mps 741 mmHg 89%
03:00 +19°C° 0 mm 1 mps 741 mmHg 90%
04:00 +18°C° 0 mm 1 mps 741 mmHg 91%
05:00 +19°C° 0 mm 1 mps 741 mmHg 88%
06:00 +20°C° 0 mm 1 mps 741 mmHg 84%
07:00 +21°C° 0 mm 1 mps 741 mmHg 81%
08:00 +23°C° 0 mm 2 mps 741 mmHg 76%
09:00 +24°C° 0 mm 3 mps 742 mmHg 71%
10:00 +25°C° 0 mm 3 mps 742 mmHg 66%
11:00 +26°C° 0 mm 3 mps 742 mmHg 62%
12:00 +26°C° 0 mm 4 mps 741 mmHg 59%
13:00 +27°C° 0 mm 4 mps 741 mmHg 56%
14:00 +27°C° 0 mm 4 mps 741 mmHg 55%
15:00 +27°C° 0 mm 4 mps 741 mmHg 53%
16:00 +27°C° 0 mm 3 mps 741 mmHg 52%
17:00 +25°C° 0 mm 3 mps 741 mmHg 56%
18:00 +24°C° 0 mm 2 mps 740 mmHg 61%
19:00 +21°C° 0 mm 2 mps 740 mmHg 65%
20:00 +21°C° 0 mm 1 mps 740 mmHg 67%
21:00 +20°C° 0 mm 1 mps 740 mmHg 69%
22:00 +19°C° 0 mm 1 mps 740 mmHg 71%
23:00 +19°C° 0 mm 1 mps 740 mmHg 73%

Day after tomorrow, 13 August, Thursday

Time Temperature Precipitation Wind Pressure Humidity
00:00 +19°C° 0 mm 1 mps 740 mmHg 75%
01:00 +18°C° 0 mm 1 mps 740 mmHg 77%
02:00 +18°C° 0 mm 1 mps 740 mmHg 77%
03:00 +18°C° 0 mm 1 mps 739 mmHg 77%
04:00 +18°C° 0 mm 1 mps 739 mmHg 77%
05:00 +19°C° 0 mm 1 mps 739 mmHg 74%
06:00 +19°C° 0 mm 2 mps 739 mmHg 72%
07:00 +20°C° 0 mm 2 mps 739 mmHg 70%
08:00 +21°C° 0 mm 2 mps 739 mmHg 65%
09:00 +24°C° 0 mm 2 mps 739 mmHg 60%
10:00 +25°C° 0 mm 3 mps 739 mmHg 54%
11:00 +26°C° 0 mm 3 mps 739 mmHg 52%
12:00 +27°C° 0 mm 3 mps 739 mmHg 50%
13:00 +28°C° 0 mm 3 mps 739 mmHg 49%
14:00 +28°C° 0 mm 3 mps 738 mmHg 50%
15:00 +28°C° 0 mm 3 mps 738 mmHg 51%
16:00 +28°C° 0 mm 3 mps 738 mmHg 52%
17:00 +27°C° 0.1 mm 2 mps 738 mmHg 58%
18:00 +25°C° 0.1 mm 2 mps 737 mmHg 64%
19:00 +23°C° 0.1 mm 1 mps 737 mmHg 70%
20:00 +23°C° 0 mm 1 mps 737 mmHg 72%
21:00 +22°C° 0 mm 1 mps 737 mmHg 74%
22:00 +21°C° 0 mm 1 mps 737 mmHg 76%
23:00 +21°C° 0 mm 1 mps 737 mmHg 78%

14 August, Friday

Time Temperature Precipitation Wind Pressure Humidity
00:00 +20°C° 0 mm 1 mps 737 mmHg 79%
01:00 +20°C° 0 mm 1 mps 737 mmHg 80%
02:00 +20°C° 0 mm 1 mps 737 mmHg 81%
03:00 +20°C° 0 mm 1 mps 737 mmHg 83%
04:00 +19°C° 0 mm 1 mps 736 mmHg 84%
05:00 +20°C° 0 mm 1 mps 736 mmHg 81%
06:00 +22°C° 0 mm 1 mps 736 mmHg 79%
07:00 +23°C° 0 mm 1 mps 736 mmHg 76%
08:00 +24°C° 0 mm 1 mps 737 mmHg 71%
09:00 +26°C° 0 mm 2 mps 737 mmHg 66%
10:00 +27°C° 0 mm 2 mps 737 mmHg 61%
11:00 +28°C° 0.1 mm 2 mps 736 mmHg 59%
12:00 +29°C° 0.1 mm 2 mps 736 mmHg 58%
13:00 +29°C° 0.1 mm 2 mps 736 mmHg 56%
14:00 +29°C° 0.6 mm 2 mps 736 mmHg 57%
15:00 +29°C° 0.6 mm 2 mps 735 mmHg 58%
16:00 +29°C° 0.6 mm 2 mps 735 mmHg 58%
17:00 +27°C° 0.4 mm 2 mps 735 mmHg 64%
18:00 +26°C° 0.4 mm 1 mps 735 mmHg 71%
19:00 +24°C° 0.4 mm 1 mps 735 mmHg 77%
20:00 +23°C° 0.1 mm 1 mps 735 mmHg 79%
21:00 +23°C° 0.1 mm 1 mps 735 mmHg 81%
22:00 +22°C° 0.1 mm 1 mps 735 mmHg 83%
23:00 +22°C° 0.2 mm 1 mps 735 mmHg 84%

15 August, Saturday

Time Temperature Precipitation Wind Pressure Humidity
00:00 +21°C° 0.2 mm 1 mps 735 mmHg 85%
01:00 +21°C° 0.2 mm 1 mps 735 mmHg 87%
02:00 +21°C° 0.1 mm 1 mps 735 mmHg 88%
03:00 +21°C° 0.1 mm 1 mps 735 mmHg 89%
04:00 +20°C° 0.1 mm 1 mps 735 mmHg 90%
05:00 +21°C° 0 mm 1 mps 735 mmHg 89%
06:00 +20°C° 0 mm 2 mps 735 mmHg 87%
07:00 +21°C° 0 mm 2 mps 736 mmHg 86%
08:00 +23°C° 0.1 mm 2 mps 736 mmHg 82%
09:00 +24°C° 0.1 mm 3 mps 736 mmHg 78%
10:00 +25°C° 0.1 mm 3 mps 736 mmHg 73%
11:00 +26°C° 0.2 mm 3 mps 736 mmHg 68%
12:00 +27°C° 0.2 mm 3 mps 736 mmHg 62%
13:00 +28°C° 0.2 mm 3 mps 736 mmHg 56%
14:00 +28°C° 0.1 mm 3 mps 736 mmHg 56%
15:00 +28°C° 0.1 mm 3 mps 736 mmHg 56%
16:00 +27°C° 0.1 mm 3 mps 736 mmHg 56%
17:00 +26°C° 0.1 mm 2 mps 736 mmHg 62%
18:00 +24°C° 0.1 mm 2 mps 736 mmHg 67%
19:00 +23°C° 0.1 mm 1 mps 736 mmHg 72%
20:00 +22°C° 0 mm 1 mps 736 mmHg 75%
21:00 +21°C° 0 mm 1 mps 737 mmHg 77%
22:00 +21°C° 0 mm 1 mps 737 mmHg 80%
23:00 +20°C° 0 mm 1 mps 737 mmHg 81%

16 August, Sunday

Time Temperature Precipitation Wind Pressure Humidity
00:00 +20°C° 0 mm 1 mps 737 mmHg 83%
01:00 +17°C° 0 mm 0 mps 737 mmHg 84%
02:00 +17°C° 0 mm 0 mps 737 mmHg 84%
03:00 +17°C° 0 mm 0 mps 737 mmHg 84%
04:00 +16°C° 0 mm 0 mps 737 mmHg 84%
05:00 +17°C° 0 mm 0 mps 737 mmHg 80%
06:00 +19°C° 0 mm 0 mps 737 mmHg 76%
07:00 +20°C° 0 mm 0 mps 738 mmHg 72%
08:00 +23°C° 0 mm 1 mps 738 mmHg 66%
09:00 +24°C° 0 mm 2 mps 738 mmHg 60%
10:00 +25°C° 0 mm 2 mps 738 mmHg 53%
11:00 +26°C° 0 mm 2 mps 738 mmHg 51%
12:00 +27°C° 0 mm 2 mps 738 mmHg 49%
13:00 +27°C° 0 mm 2 mps 738 mmHg 47%
14:00 +27°C° 0 mm 3 mps 737 mmHg 47%
15:00 +27°C° 0 mm 3 mps 737 mmHg 47%
16:00 +27°C° 0 mm 3 mps 737 mmHg 47%
17:00 +26°C° 0 mm 2 mps 737 mmHg 53%
18:00 +24°C° 0 mm 2 mps 737 mmHg 60%
19:00 +23°C° 0 mm 2 mps 737 mmHg 67%
20:00 +21°C° 0 mm 2 mps 737 mmHg 69%
21:00 +20°C° 0 mm 2 mps 737 mmHg 72%
22:00 +19°C° 0 mm 2 mps 737 mmHg 74%
23:00 +19°C° 0 mm 1 mps 737 mmHg 76%
Show more